Weather History for KVTN - September, 2013

Change the Weather History Date:

Wednesday, September 18, 2013

  Actual Average Record
Temperature  
Mean Temperature 78 °F 61 °F  
Max Temperature 96 °F 76 °F 98 °F (1972)
Min Temperature 60 °F 46 °F 24 °F (1991)
Degree Days  
Heating Degree Days 0 6  
Month to date heating degree days 15 63  
Since 1 July heating degree days 18 88  
Cooling Degree Days 13 2  
Month to date cooling degree days 154 68  
Year to date cooling degree days 947 804  
Growing Degree Days 28 (Base 50)    
Moisture  
Dew Point 57 °F    
Average Humidity 58    
Maximum Humidity 97    
Minimum Humidity 19    
Precipitation  
Precipitation 0.00 in 0.06 in 1.73 in (1995)
Month to date precipitation 0.51 0.98  
Year to date precipitation 18.15 17.09  
Snow  
Snow 0.00 in 0.00 in 0.00 in ()
Month to date snowfall 0.0 0.2  
Since 1 July snowfall 0.0 0.2  
Since 1 September snowfall 0.0 0.2  
Snow Depth 0.00 in    
Sea Level Pressure  
Sea Level Pressure 29.61 in    
Wind  
Wind Speed 8 mph (SW)    
Max Wind Speed 18 mph    
Max Gust Speed 26 mph    
Visibility 10 miles    
Events      
T = Trace of Precipitation, MM = Missing Value Source: NWS Daily Summary

Daily Weather History Graph

Daily Weather History Graph

Search for Another Location

Airport or City:

Trip Planner

Search our weather history database for the weather conditions in past years. The results will help you decide how hot, cold, wet, or windy it might be!

Date:

Astronomy

Sep. 18, 2013 Rise Set
Actual Time 7:25 AM CDT 7:46 PM CDT
Civil Twilight 6:57 AM CDT 8:14 PM CDT
Nautical Twilight 6:23 AM CDT 8:47 PM CDT
Astronomical Twilight 5:49 AM CDT 9:21 PM CDT
Moon 7:09 PM CDT (9/18) 6:29 AM CDT (9/18)
Length of Visible Light 13h 17m
Length of Day
12h 20m
Waxing Gibbous, 99% of the Moon is Illuminated
Sep 18
Waxing Gibbous
Sep 19
Full
Sep 26
Last Quarter
Oct 4
New
Oct 11
First Quarter

Hourly Weather History & Observations

Time (CDT) Temp. Heat Index Dew Point Humidity Pressure Visibility Wind Dir Wind Speed Gust Speed Precip Events Conditions
12:52 AM 70.0 °F - 63.0 °F 78% 29.68 in 10.0 mi SSW 11.5 mph - N/A   Clear
1:52 AM 68.0 °F - 62.1 °F 81% 29.66 in 10.0 mi South 15.0 mph - N/A   Clear
2:52 AM 69.1 °F - 61.0 °F 75% 29.66 in 10.0 mi SSW 13.8 mph - N/A   Clear
3:52 AM 64.9 °F - 61.0 °F 87% 29.65 in 10.0 mi SW 10.4 mph - N/A   Clear
4:52 AM 62.1 °F - 60.1 °F 93% 29.64 in 10.0 mi SSW 6.9 mph - N/A   Clear
5:52 AM 62.1 °F - 60.1 °F 93% 29.63 in 10.0 mi SSW 5.8 mph - N/A   Clear
6:52 AM 62.1 °F - 60.1 °F 93% 29.64 in 10.0 mi Calm Calm - N/A   Clear
7:52 AM 60.1 °F - 59.0 °F 96% 29.64 in 7.0 mi Calm Calm - N/A   Clear
8:52 AM 66.0 °F - 62.1 °F 87% 29.64 in 10.0 mi SSW 6.9 mph - N/A   Clear
9:52 AM 72.0 °F - 62.1 °F 71% 29.64 in 10.0 mi WSW 5.8 mph - N/A   Clear
10:52 AM 78.1 °F - 62.1 °F 58% 29.64 in 10.0 mi SSW 8.1 mph - N/A   Clear
11:52 AM 82.0 °F 83.0 °F 62.1 °F 51% 29.61 in 10.0 mi South 9.2 mph - N/A   Clear
12:52 PM 88.0 °F 88.7 °F 63.0 °F 43% 29.60 in 10.0 mi Variable 6.9 mph - N/A   Clear
1:52 PM 91.0 °F 90.5 °F 60.1 °F 35% 29.58 in 10.0 mi SW 10.4 mph - N/A   Clear
2:52 PM 91.9 °F 90.8 °F 57.9 °F 32% 29.56 in 10.0 mi Variable 5.8 mph - N/A   Clear
3:52 PM 93.9 °F 92.0 °F 55.0 °F 27% 29.55 in 10.0 mi South 12.7 mph 18.4 mph N/A   Partly Cloudy
4:52 PM 96.1 °F - 48.0 °F 19% 29.55 in 10.0 mi West 13.8 mph 19.6 mph N/A   Clear
5:52 PM 93.9 °F - 45.0 °F 18% 29.56 in 10.0 mi West 6.9 mph - N/A   Clear
6:52 PM 91.0 °F - 46.0 °F 21% 29.55 in 10.0 mi SW 6.9 mph - N/A   Clear
7:52 PM 80.1 °F - 51.1 °F 36% 29.57 in 7.0 mi SSW 5.8 mph - N/A   Clear
8:52 PM 73.9 °F - 52.0 °F 46% 29.58 in 9.0 mi SSW 8.1 mph - N/A   Clear
9:52 PM 71.1 °F - 51.1 °F 49% 29.59 in 10.0 mi SSW 5.8 mph - N/A   Clear
10:52 PM 73.9 °F - 51.1 °F 45% 29.61 in 10.0 mi NW 11.5 mph - N/A   Clear
11:52 PM 70.0 °F - 57.0 °F 63% 29.65 in 10.0 mi NW 6.9 mph - N/A   Clear